Weather History for KP58 - December, 2012

Change the Weather History Date:

Monday, December 10, 2012

  Actual Average Record
Temperature  
Mean Temperature 32 °F -  
Max Temperature 37 °F 35 °F 46 °F (1999)
Min Temperature 27 °F 27 °F 9 °F (2013)
Degree Days  
Heating Degree Days 33    
Moisture  
Dew Point 28 °F    
Average Humidity 85    
Maximum Humidity 100    
Minimum Humidity 72    
Precipitation  
Precipitation 0.03 in - - ()
Sea Level Pressure  
Sea Level Pressure 29.68 in    
Wind  
Wind Speed 5 mph (WNW)    
Max Wind Speed 10 mph    
Max Gust Speed 17 mph    
Averages and records for this station are not official NWS values.
T = Trace of Precipitation, MM = Missing Value Source: NWS Daily Summary

Daily Weather History Graph

Daily Weather History Graph

Search for Another Location

Airport or City:

Trip Planner

Search our weather history database for the weather conditions in past years. The results will help you decide how hot, cold, wet, or windy it might be!

Date:

Astronomy

Dec. 10, 2012 Rise Set
Actual Time 7:55 AM EST 4:52 PM EST
Civil Twilight 7:22 AM EST 5:25 PM EST
Nautical Twilight 6:46 AM EST 6:02 PM EST
Astronomical Twilight 6:11 AM EST 6:37 PM EST
Moon 4:33 AM EST (12/10) 2:44 PM EST (12/10)
Length of Visible Light 10h 03m
Length of Day
8h 57m
Waning Crescent, 10% of the Moon is Illuminated
Dec 10
Waning Crescent
Dec 13
New
Dec 20
First Quarter
Dec 28
Full
Jan 4
Last Quarter

Hourly Weather History & Observations

Time (EST) Temp. Windchill Dew Point Humidity Pressure Visibility Wind Dir Wind Speed Gust Speed Precip Events Conditions
12:51 AM 37.0 °F - 37.0 °F 100% 29.64 in - Calm Calm - N/A   Unknown
1:51 AM 36.0 °F - 36.0 °F 100% 29.62 in - Calm Calm - N/A   Unknown
2:51 AM 36.0 °F - 36.0 °F 100% 29.59 in - Calm Calm - N/A   Unknown
3:51 AM 34.0 °F 31.0 °F 33.1 °F 96% 29.57 in - Variable 3.5 mph - N/A   Unknown
4:51 AM 34.0 °F 28.0 °F 32.0 °F 92% 29.56 in - Variable 6.9 mph - N/A   Unknown
5:51 AM 34.0 °F 26.6 °F 33.1 °F 96% 29.57 in - West 9.2 mph 17.3 mph N/A   Unknown
6:51 AM 35.1 °F 30.1 °F 32.0 °F 89% 29.57 in - Variable 5.8 mph - N/A   Unknown
7:51 AM 35.1 °F 30.1 °F 32.0 °F 89% 29.58 in - WSW 5.8 mph - N/A   Unknown
8:51 AM 34.0 °F 29.8 °F 32.0 °F 92% 29.60 in - Variable 4.6 mph - 0.01 in   Unknown
9:51 AM 34.0 °F 28.8 °F 30.9 °F 89% 29.63 in - WNW 5.8 mph - 0.01 in   Unknown
10:51 AM 33.1 °F 27.7 °F 30.0 °F 89% 29.65 in - WNW 5.8 mph - N/A   Unknown
11:51 AM 33.1 °F 26.9 °F 28.9 °F 85% 29.65 in - Variable 6.9 mph - N/A   Unknown
12:51 PM 33.1 °F 26.1 °F 28.0 °F 82% 29.65 in - NW 8.1 mph - N/A   Unknown
1:51 PM 33.1 °F 26.9 °F 26.1 °F 75% 29.65 in - NW 6.9 mph 16.1 mph N/A   Unknown
2:51 PM 32.0 °F 26.4 °F 24.1 °F 73% 29.68 in - WNW 5.8 mph - N/A   Unknown
3:51 PM 30.9 °F 22.2 °F 24.1 °F 76% 29.70 in - NW 10.4 mph 17.3 mph N/A   Unknown
4:51 PM 30.9 °F 22.8 °F 23.0 °F 72% 29.72 in - WNW 9.2 mph - N/A   Unknown
5:51 PM 30.0 °F 22.4 °F 23.0 °F 75% 29.75 in - NW 8.1 mph 16.1 mph N/A   Unknown
6:51 PM 28.0 °F 20.0 °F 19.9 °F 72% 29.79 in - NW 8.1 mph - N/A   Unknown
7:51 PM 28.0 °F 20.0 °F 19.9 °F 72% 29.82 in - NW 8.1 mph - N/A   Unknown
8:51 PM 28.0 °F 19.3 °F 19.9 °F 72% 29.84 in - WNW 9.2 mph - N/A   Unknown
9:51 PM 27.0 °F 20.5 °F 21.0 °F 78% 29.84 in - WNW 5.8 mph - N/A   Unknown
10:51 PM 28.0 °F 20.8 °F 23.0 °F 81% 29.86 in - WNW 6.9 mph - N/A   Unknown
11:51 PM 27.0 °F 18.7 °F 23.0 °F 85% 29.87 in - West 8.1 mph - 0.01 in   Unknown